Location: Recife
(8.0585°S, 34.8848°W)
Time: 14:23:27
(UTC-03:00)

Tiros 1 despin weight - Pass Details

Date: 22 April 2026
Orbit: 555 x 591 km, 48.2° (Epoch: 14 May)

Event Time Altitude Azimuth Distance (km) Brightness Sun altitude
Rises 22:04:36 0° 330° (NNW) 2,797 - -71.4°
Reaches altitude 10° 22:06:55 10° 336° (NNW) 1,903 - -72.0°
Maximum altitude 22:11:09 50° 51° (NE) 750 - -73.0°
Drops below altitude 10° 22:15:25 10° 127° (SE) 1,916 - -74.0°
Sets 22:17:45 0° 132° (SE) 2,818 - -74.5°
